Hourly Data Report for September 05, 2017

All times are specified in Local Standard Time (LST). Add 1 hour to adjust for Daylight Saving Time where and when it is observed.

NORTH CAPE
PRINCE EDWARD ISLAND

47°03'29.000" N
63°59'55.000" W
7.60 m
8300516
71987
WNE

Download Data

Hourly Data (September 2017)
Hourly Data Report for September 5, 2017
Temp Definition
°C
Dew Point Temp Definition
°C
Rel Hum Definition
%
Wind Dir Definition
10's deg

Wind Spd Definition
km/h
Visibility Definition
km
Stn Press Definition
kPa
Hmdx Definition


Wind Chill Definition


Weather Definition


TIME
00:00 17.7 12.9 73 22 32   100.53     LegendNANA
01:00 17.9 12.5 71 22 30   100.49     LegendNANA
02:00 18.1 12.1 68 21 31   100.49     LegendNANA
03:00 17.7 12.2 71 21 31   100.49     LegendNANA
04:00 17.4 12.7 74 21 29   100.47     LegendNANA
05:00 16.7 12.6 77 21 25   100.45     LegendNANA
06:00 16.9 12.9 77 20 22   100.50     LegendNANA
07:00 17.7 13.5 77 19 24   100.48     LegendNANA
08:00 19.0 14.2 74 19 28   100.44     LegendNANA
09:00 19.4 14.6 74 20 27   100.49     LegendNANA
10:00 20.2 14.7 71 20 28   100.48     LegendNANA
11:00 21.6 14.8 65 21 33   100.46 25   LegendNANA
12:00 23.7 15.7 61 21 32   100.41 28   LegendNANA
13:00 24.0 15.8 60 22 33   100.46 28   LegendNANA
14:00 22.6 16.1 67 23 28   100.48 27   LegendNANA
15:00 22.2 16.0 68 23 32   100.53 27   LegendNANA
16:00 21.7 16.1 71 23 25   100.60 26   LegendNANA
17:00 22.8 16.5 67 21 19   100.63 28   LegendNANA
18:00 22.2 16.8 71 19 13   100.72 27   LegendNANA
19:00 21.1 16.6 75 21 19   100.78 26   LegendNANA
20:00 20.1 16.6 80 21 21   100.82 25   LegendNANA
21:00 19.9 16.9 83 21 20   100.86     LegendNANA
22:00 19.6 16.8 84 21 19   100.89     LegendNANA
23:00 19.9 17.1 84 22 25   100.91     LegendNANA

Notes on Data Quality.

Legend

  • E = Estimated
  • M = Missing
  • NA = Not Available
  • ‡ = Partner data that is not subject to review by the National Climate Archives
Date modified: